Weather in Duki

Russia / Khabarovsk Krai     51°33′52″N   135°48′43″E
temp.,
°C
wind,
m/s
gust,
m/s
humid.,
%
clouds,
%
prec.,
mm/h
press.,
hPa
HPBL,
m
17 october, sun
sun1701:00−8w219797 0.2 101136
04:00−9w239699 0.3 101058
07:00−8w2492100 0.3 1010140
10:00−5w2588100 1.2 1011472
13:00−2w2472100 0.3 1011880
16:00−1ssw016050 0.4 1011857
19:00−7ene119291 0.1 101415
22:00−10nne129598 0.1 101630
18 october, mon
mon1801:00−9wsw1197100 0.1 101718
04:00−11wsw219897 0.1 101815
07:00−12wsw219861 0.0 101924
10:00−7sw23795 0.0 1019313
13:00−3wsw346014 0.0 10181057
16:00−1wsw245495 0.0 10181272
19:00−9wsw22905 0.0 102019
22:00−11wsw22935 0.0 102127
19 october, tue
tue1901:00−12wsw24935 0.0 102155
04:00−12wsw38925 0.0 1021153
07:00−12wsw311885 0.0 1021198
10:00−6wsw512670 0.0 1020469
13:00−1wsw69555 0.0 10171180
16:000w58566 0.0 10161190
19:00−3w51165100 0.0 1017346
22:00−6wsw3879100 0.0 1018159
20 october, wed
wed2001:00−8w22905 0.0 101843
04:00−10wsw22955 0.0 102026
07:00−10wsw22958 0.0 102032
10:00−4wsw23701 0.0 1020238
13:00+1wsw22590 0.0 1018480
16:00+2sw12630 0.0 1017378
19:00−6wsw11935 0.0 101810
22:00−7wsw21955 0.0 101719
21 october, thu
thu2101:00−7wsw22955 0.0 101731
04:00−8wsw22945 0.0 101641
07:00−8wsw22945 0.0 101546
10:00−3wsw357326 0.0 1013289
13:00+2wsw47646 0.0 1011727
16:00+3w5866100 0.0 1010658
19:00+1wsw4969100 0.0 1011239
22:00−1w397847 0.0 1011196